Tracking 20721 objects as of 1-Jun-2020
HD Live streaming from Space Station
objects crossing your sky now

IRIDIUM 33 DEB

Track IRIDIUM 33 DEB now!
10-day predictions


NORAD ID: 34520
Int'l Code: 1997-051HM
Perigee: 612.2 km
Apogee: 626.5 km
Inclination: 86.4 °
Period: 96.9 minutes
Semi major axis: 6990 km
RCS: 0.052 m2 (small)
Launch date: September 14, 1997
Source: United States (US)
Launch site: TYURATAM MISSILE AND SPACE COMPLEX (TTMTR)

Note: This is SATELLITE DEBRIS
aabbcc
Your satellite tracking list
Your tracking list is empty




NASA's NSSDC Master Catalog

Two Line Element Set (TLE):
1 34520U 97051HM  20151.72212298 +.00004930 +00000-0 +56865-3 0  9997
2 34520 086.3604 130.9400 0010265 239.3234 120.6979 14.85436013597639
Source of the keplerian elements: AFSPC